DW2363 Weather Reports


time (UTC)temp
F
wind
direction
speed
knots
gust
knots
rain 1hr
in
rain 24hr
in
rain mn
in
humidity
%
barometer
mb
20260509143647 65 32 5.2 7.8 0.00 0.00 0.00 68 1013.6
20260509143146 64 16 6.1 7.8 0.00 0.00 0.00 69 1013.6
20260509142647 65 11 5.2 7.8 0.00 0.00 0.00 68 1013.6
20260509142146 65 0 4.3 7.8 0.00 0.00 0.00 69 1013.5
20260509141646 65 19 5.2 7.8 0.00 0.00 0.00 68 1013.5
20260509141147 65 24 4.3 7.0 0.00 0.00 0.00 69 1013.4
20260509140647 65 26 4.3 7.0 0.00 0.00 0.00 69 1013.4
20260509140146 64 26 5.2 7.0 0.00 0.00 0.00 70 1013.4
20260509135646 64 36 5.2 7.8 0.00 0.00 0.00 69 1013.4
20260509135146 64 31 5.2 7.8 0.00 0.00 0.00 71 1013.4
20260509134646 64 24 5.2 8.7 0.00 0.00 0.00 70 1013.4
20260509134146 63 36 5.2 8.7 0.00 0.00 0.00 73 1013.4
20260509133646 63 28 6.1 9.6 0.00 0.00 0.00 73 1013.2
20260509133146 63 37 7.0 9.6 0.00 0.00 0.00 72 1013.4
20260509132644 63 49 7.8 9.6 0.00 0.00 0.00 74 1013.2
20260509132253 62 30 7.8 9.6 0.00 0.00 0.00 76 1013.0
20260509132149 62 40 8.7 10.4 0.00 0.00 0.00 76 1013.0
20260509132145 62 36 8.7 10.4 0.00 0.00 0.00 75 1013.1
20260509130645 62 32 7.0 9.6 0.00 0.00 0.00 75 1013.0
20260509130145 62 11 7.8 10.4 0.00 0.00 0.00 73 1013.0
20260509125644 63 17 7.8 10.4 0.00 0.00 0.00 72 1013.0
20260509125142 63 49 7.0 9.6 0.00 0.00 0.00 72 1012.9
20260509124642 62 61 6.1 10.4 0.00 0.00 0.00 73 1012.9
20260509124142 62 45 6.1 10.4 0.00 0.00 0.00 75 1012.9
20260509123647 62 58 7.8 10.4 0.00 0.00 0.00 75 1012.9
20260509123643 62 43 7.8 10.4 0.00 0.00 0.00 76 1012.9
20260509123249 62 59 8.7 11.3 0.00 0.00 0.00 78 1012.9
20260509122140 62 51 8.7 11.3 0.00 0.00 0.00 78 1012.8
20260509121639 62 81 9.6 10.4 0.00 0.00 0.00 78 1012.8
20260509121138 62 105 8.7 10.4 0.00 0.00 0.00 79 1012.7
20260509120638 61 99 8.7 10.4 0.00 0.00 0.00 81 1012.8
20260509120136 61 91 8.7 10.4 0.00 0.00 0.00 82 1012.8
20260509115636 61 96 8.7 10.4 0.00 0.00 0.00 82 1012.8
20260509115136 61 96 8.7 12.2 0.00 0.00 0.00 84 1012.9
20260509114636 61 101 8.7 12.2 0.00 0.00 0.00 84 1012.9
20260509114136 61 90 10.4 12.2 0.00 0.00 0.00 83 1012.9
20260509113636 61 93 10.4 12.2 0.00 0.00 0.00 82 1012.8
20260509113140 61 84 9.6 12.2 0.00 0.00 0.00 82 1012.9
20260509113136 61 82 9.6 12.2 0.00 0.00 0.00 82 1012.8
20260509112743 61 74 9.6 12.2 0.00 0.00 0.00 83 1012.8
20260509112241 60 92 8.7 11.3 0.00 0.00 0.00 84 1012.8
20260509111134 60 89 8.7 11.3 0.00 0.00 0.00 85 1012.8
20260509110634 60 71 8.7 11.3 0.00 0.00 0.00 85 1012.9
20260509110134 61 76 9.6 11.3 0.00 0.00 0.00 84 1012.9
20260509105634 61 101 9.6 11.3 0.00 0.00 0.00 83 1012.9
20260509105134 61 105 9.6 11.3 0.00 0.00 0.00 82 1012.9
20260509104634 61 103 9.6 11.3 0.00 0.00 0.00 83 1013.0
20260509104134 61 113 10.4 12.2 0.00 0.00 0.00 83 1012.9
20260509103634 61 101 10.4 12.2 0.00 0.00 0.00 83 1013.0
20260509103132 60 103 9.6 11.3 0.00 0.00 0.00 86 1013.0
20260509102632 60 108 9.6 11.3 0.00 0.00 0.00 86 1013.0
20260509102132 60 109 10.4 11.3 0.00 0.00 0.00 83 1013.0
20260509101632 61 106 9.6 11.3 0.00 0.00 0.00 82 1013.0
20260509101132 61 116 9.6 10.4 0.00 0.00 0.00 82 1013.0
20260509100632 61 115 8.7 10.4 0.00 0.00 0.00 82 1013.0
20260509100131 61 99 7.8 9.6 0.00 0.00 0.00 82 1013.1
20260509095631 60 113 7.8 8.7 0.00 0.00 0.00 82 1013.1
20260509095131 60 82 7.8 8.7 0.00 0.00 0.00 83 1013.2
20260509094631 60 83 7.8 8.7 0.00 0.00 0.00 83 1013.2
20260509094136 61 84 7.8 9.6 0.00 0.00 0.00 81 1013.4
20260509094132 61 87 7.8 8.7 0.00 0.00 0.00 82 1013.2
20260509093738 60 77 8.7 11.3 0.00 0.00 0.00 83 1013.4
20260509092631 60 93 9.6 11.3 0.00 0.00 0.00 83 1013.4
20260509092131 60 98 8.7 11.3 0.00 0.00 0.00 83 1013.4
20260509091631 61 105 8.7 10.4 0.00 0.00 0.00 82 1013.4
20260509091131 61 86 8.7 10.4 0.00 0.00 0.00 80 1013.4
20260509090628 62 82 8.7 10.4 0.00 0.00 0.00 75 1013.4
20260509090128 62 39 8.7 9.6 0.00 0.00 0.00 78 1013.5
20260509085626 62 82 8.7 10.4 0.00 0.00 0.00 76 1013.5
20260509085126 62 96 8.7 10.4 0.00 0.00 0.00 74 1013.5
20260509084626 61 87 7.8 9.6 0.00 0.00 0.00 77 1013.5
20260509084126 61 0 7.0 8.7 0.00 0.00 0.00 79 1013.6
20260509083625 62 348 7.0 8.7 0.00 0.00 0.00 77 1013.6
20260509083125 62 30 7.0 8.7 0.00 0.00 0.00 77 1013.7
20260509082625 61 24 7.0 8.7 0.00 0.00 0.00 78 1013.7
20260509082125 61 23 7.8 9.6 0.00 0.00 0.00 80 1013.7
20260509081626 61 26 7.8 9.6 0.00 0.00 0.00 80 1013.7
20260509081131 61 46 7.0 8.7 0.00 0.00 0.00 80 1013.7
20260509081125 61 37 7.8 9.6 0.00 0.00 0.00 80 1013.8
20260509080125 60 41 5.2 8.7 0.00 0.00 0.00 85 1013.8
20260509075628 60 54 4.3 7.8 0.00 0.00 0.00 86 1014.0
20260509075623 60 58 4.3 7.8 0.00 0.00 0.00 86 1013.9
20260509074623 60 44 5.2 9.6 0.00 0.00 0.00 84 1014.0
20260509074124 60 32 5.2 9.6 0.00 0.00 0.00 84 1014.1
20260509073623 59 35 5.2 8.7 0.00 0.00 0.00 86 1014.0
20260509073124 59 63 5.2 7.8 0.00 0.00 0.00 87 1014.1
20260509072732 59 48 7.0 9.6 0.00 0.00 0.00 86 1014.0
20260509072627 60 68 7.0 9.6 0.00 0.00 0.00 86 1014.0
20260509072623 60 22 6.1 9.6 0.00 0.00 0.00 86 1014.0
20260509071122 59 62 7.8 10.4 0.00 0.00 0.00 86 1014.0
20260509070621 59 49 7.8 10.4 0.00 0.00 0.00 86 1014.1
20260509070121 59 56 7.8 11.3 0.00 0.00 0.00 86 1014.1
20260509065621 59 62 7.8 11.3 0.00 0.00 0.00 86 1014.2
20260509065121 59 68 7.0 10.4 0.00 0.00 0.00 86 1014.3
20260509064621 59 92 7.8 10.4 0.00 0.00 0.00 86 1014.3
20260509064125 59 101 7.0 9.6 0.00 0.00 0.00 85 1014.3
20260509064121 59 91 7.0 9.6 0.00 0.00 0.00 86 1014.3
20260509063121 59 92 7.0 9.6 0.00 0.00 0.00 85 1014.2
20260509062621 60 102 6.1 9.6 0.00 0.00 0.00 85 1014.2
20260509062121 60 71 7.0 9.6 0.00 0.00 0.00 84 1014.2
20260509061619 60 92 7.0 10.4 0.00 0.00 0.00 83 1014.2
20260509061119 60 91 7.8 10.4 0.00 0.00 0.00 82 1014.3
20260509060619 60 90 8.7 10.4 0.00 0.00 0.00 81 1014.3
20260509060119 61 101 9.6 10.4 0.00 0.00 0.00 80 1014.2
20260509055619 61 91 8.7 10.4 0.00 0.00 0.00 78 1014.3
20260509055120 61 92 8.7 10.4 0.00 0.00 0.00 77 1014.3
20260509054623 63 101 9.6 11.3 0.00 0.00 0.00 75 1014.5
20260509054619 62 98 8.7 10.4 0.00 0.00 0.00 77 1014.4
20260509053619 63 89 10.4 11.3 0.00 0.00 0.00 74 1014.4
20260509053116 63 84 10.4 11.3 0.00 0.00 0.00 72 1014.4
20260509052614 64 83 10.4 12.2 0.00 0.00 0.00 72 1014.4
20260509052115 64 134 9.6 12.2 0.00 0.00 0.00 71 1014.4
20260509051615 63 134 8.7 11.3 0.00 0.00 0.00 73 1014.4
20260509051120 64 69 9.6 12.2 0.00 0.00 0.00 74 1014.4
20260509051116 63 51 8.7 11.3 0.00 0.00 0.00 74 1014.5
20260509050115 65 64 10.4 12.2 0.00 0.00 0.00 73 1014.4
20260509045619 65 78 10.4 13.0 0.00 0.00 0.00 74 1014.3
20260509045615 65 80 10.4 13.0 0.00 0.00 0.00 72 1014.3
20260509044615 65 71 10.4 13.0 0.00 0.00 0.00 74 1014.3
20260509044112 65 80 9.6 13.0 0.00 0.00 0.00 73 1014.2
20260509043612 65 65 9.6 12.2 0.00 0.00 0.00 71 1014.2
20260509043113 66 82 9.6 12.2 0.00 0.00 0.00 72 1014.2
20260509042612 66 80 10.4 12.2 0.00 0.00 0.00 70 1014.1
20260509042113 66 34 10.4 12.2 0.00 0.00 0.00 69 1014.1
20260509041613 66 49 10.4 12.2 0.00 0.00 0.00 69 1014.0
20260509041110 66 5 9.6 12.2 0.00 0.00 0.00 70 1014.0
20260509040611 65 37 9.6 11.3 0.00 0.00 0.00 72 1014.0
20260509040111 65 42 7.8 11.3 0.00 0.00 0.00 73 1013.9
20260509035611 65 33 6.1 7.8 0.00 0.00 0.00 78 1014.0
20260509035111 65 57 6.1 7.0 0.00 0.00 0.00 77 1014.0
20260509034611 65 57 6.1 7.8 0.00 0.00 0.00 75 1014.0
20260509034111 66 62 7.0 7.8 0.00 0.00 0.00 73 1013.9
20260509033611 66 62 6.1 7.8 0.00 0.00 0.00 72 1013.9
20260509033111 66 57 6.1 8.7 0.00 0.00 0.00 72 1013.9
20260509032611 67 64 7.0 8.7 0.00 0.00 0.00 71 1013.8
20260509032111 67 74 7.0 8.7 0.00 0.00 0.00 71 1013.8
20260509031611 67 89 7.8 8.7 0.00 0.00 0.00 73 1013.7
20260509031110 67 95 7.0 8.7 0.00 0.00 0.00 73 1013.7
20260509030612 67 98 6.1 7.8 0.00 0.00 0.00 74 1013.7
20260509030111 67 103 6.1 7.0 0.00 0.00 0.00 74 1013.7
20260509025611 67 103 6.1 7.0 0.00 0.00 0.00 75 1013.6
20260509025115 67 107 5.2 6.1 0.00 0.00 0.00 75 1013.6
20260509025111 67 108 5.2 7.0 0.00 0.00 0.00 75 1013.6
20260509024111 67 108 4.3 6.1 0.00 0.00 0.00 75 1013.6
20260509023611 67 102 4.3 6.1 0.00 0.00 0.00 75 1013.6
20260509023111 67 102 3.5 5.2 0.00 0.00 0.00 75 1013.6
20260509022610 67 105 3.5 6.1 0.00 0.00 0.00 76 1013.5
20260509022115 66 104 1.7 3.5 0.00 0.00 0.00 77 1013.5
20260509022111 67 105 2.6 6.1 0.00 0.00 0.00 76 1013.5
20260509021111 66 94 0.9 3.5 0.00 0.00 0.00 77 1013.6
20260509020610 66 109 0.9 2.6 0.00 0.00 0.00 77 1013.5
20260509020108 67 109 1.7 7.0 0.00 0.00 0.00 77 1013.7
20260509015608 67 109 2.6 7.0 0.00 0.00 0.00 76 1013.5
20260509015109 68 92 3.5 7.0 0.00 0.00 0.00 73 1013.5
20260509015105 68 109 3.5 7.0 0.00 0.00 0.00 74 1013.4
20260509014104 68 94 2.6 6.1 0.00 0.00 0.00 73 1013.4
20260509013608 68 74 2.6 5.2 0.00 0.00 0.00 73 1013.5
20260509013604 68 86 2.6 6.1 0.00 0.00 0.00 73 1013.4
20260509013212 68 71 2.6 5.2 0.00 0.00 0.00 72 1013.5
20260509012712 68 67 1.7 4.3 0.00 0.00 0.00 73 1013.4
20260509011605 68 67 1.7 4.3 0.00 0.00 0.00 73 1013.4
20260509011104 68 77 1.7 3.5 0.00 0.00 0.00 73 1013.5
20260509010604 68 84 2.6 3.5 0.00 0.00 0.00 74 1013.5
20260509010104 68 86 3.5 6.1 0.00 0.00 0.00 73 1013.2
20260509005605 68 105 4.3 6.1 0.00 0.00 0.00 73 1013.4
20260509005104 68 102 4.3 6.1 0.00 0.00 0.00 71 1013.4
20260509004604 69 114 2.6 6.1 0.00 0.00 0.00 70 1013.4
20260509004104 70 108 1.7 5.2 0.00 0.00 0.00 69 1013.6
20260509003608 72 43 0.0 1.7 0.00 0.00 0.00 66 1013.5
20260509003604 71 105 0.0 2.6 0.00 0.00 0.00 67 1013.5
20260509002604 73 43 0.0 1.7 0.00 0.00 0.00 66 1013.4
20260509002102 73 43 0.0 1.7 0.00 0.00 0.00 67 1013.4
20260509001606 73 43 0.9 2.6 0.00 0.00 0.00 68 1013.6
20260509001602 73 43 0.0 1.7 0.00 0.00 0.00 67 1013.5
20260509000601 73 43 0.9 2.6 0.00 0.00 0.00 68 1013.6
20260509000106 74 14 0.9 2.6 0.00 0.00 0.00 66 1013.6
20260508235102 75 53 0.9 2.6 0.00 0.00 0.00 65 1013.7
20260508234602 75 242 0.9 2.6 0.00 0.00 0.00 65 1013.7
20260508234102 75 171 0.9 3.5 0.00 0.00 0.00 64 1013.6
20260508233601 75 200 0.9 3.5 0.00 0.00 0.00 64 1013.6
20260508233100 75 45 1.7 4.3 0.00 0.00 0.00 65 1013.6
20260508232606 73 296 2.6 6.1 0.00 0.00 0.00 64 1013.7
20260508232602 74 313 1.7 6.1 0.00 0.00 0.00 62 1013.6
20260508231601 74 286 2.6 6.1 0.00 0.00 0.00 63 1013.7
20260508231059 75 267 1.7 6.1 0.00 0.00 0.00 61 1013.7
20260508230602 76 316 0.9 4.3 0.00 0.00 0.00 60 1013.8
20260508230100 76 237 0.9 4.3 0.00 0.00 0.00 62 1013.9
20260508225602 77 118 0.9 3.5 0.00 0.00 0.00 61 1013.9
20260508225100 76 98 0.0 2.6 0.00 0.00 0.00 62 1014.0
20260508224602 76 101 0.9 2.6 0.00 0.00 0.00 63 1014.0
20260508224058 76 161 0.9 3.5 0.00 0.00 0.00 63 1014.1
20260508223558 75 268 0.9 4.3 0.00 0.00 0.00 63 1014.1
20260508223058 76 43 0.9 4.3 0.00 0.00 0.00 65 1014.2
20260508222557 75 314 1.7 5.2 0.00 0.00 0.00 65 1014.2
20260508222102 74 340 1.7 5.2 0.00 0.00 0.00 67 1014.3
20260508222058 74 323 1.7 5.2 0.00 0.00 0.00 65 1014.3
20260508221057 74 14 1.7 5.2 0.00 0.00 0.00 67 1014.4
20260508220558 73 54 1.7 5.2 0.00 0.00 0.00 68 1014.4
20260508220058 71 19 1.7 5.2 0.00 0.00 0.00 73 1014.4
20260508215557 69 315 2.6 7.0 0.00 0.00 0.00 74 1014.5
20260508215102 68 259 2.6 8.7 0.00 0.00 0.00 74 1014.6
20260508215058 68 293 2.6 7.0 0.00 0.00 0.00 75 1014.6
20260508214058 69 253 2.6 8.7 0.00 0.00 0.00 72 1014.8
20260508213557 70 269 3.5 8.7 0.00 0.00 0.00 70 1014.8
20260508213057 71 265 2.6 8.7 0.00 0.00 0.00 70 1014.8
20260508212557 70 304 2.6 7.0 0.00 0.00 0.00 70 1014.9
20260508212058 71 263 2.6 7.0 0.00 0.00 0.00 70 1014.9
20260508211556 72 271 1.7 6.1 0.00 0.00 0.00 68 1014.9
20260508211055 73 275 1.7 5.2 0.00 0.00 0.00 66 1015.0
20260508210556 74 319 0.9 4.3 0.00 0.00 0.00 67 1015.0
20260508210055 74 320 0.9 4.3 0.00 0.00 0.00 68 1015.1
20260508205555 73 329 1.7 6.1 0.00 0.00 0.00 68 1015.1
20260508205056 72 37 2.6 6.1 0.00 0.00 0.00 70 1015.1
20260508204556 72 30 1.7 7.0 0.00 0.00 0.00 71 1015.2
20260508204100 71 9 2.6 7.8 0.00 0.00 0.00 73 1015.2
20260508204056 71 71 1.7 7.0 0.00 0.00 0.00 72 1015.2
20260508203100 70 345 1.7 7.0 0.00 0.00 0.00 76 1015.3
20260508203056 71 309 3.5 7.8 0.00 0.00 0.00 73 1015.3
20260508202055 67 291 1.7 7.0 0.00 0.00 0.00 78 1015.3
20260508201555 67 266 1.7 7.0 0.00 0.00 0.00 79 1015.3
20260508201055 65 265 1.7 5.2 0.00 0.00 0.00 81 1015.4
20260508200602 65 239 1.7 4.3 0.00 0.00 0.00 79 1015.5
20260508200556 65 254 1.7 5.2 0.00 0.00 0.00 81 1015.4
20260508195555 67 247 0.9 4.3 0.00 0.00 0.00 76 1015.4
20260508195053 68 213 1.7 7.8 0.00 0.00 0.00 75 1015.5
20260508194554 69 196 2.6 7.8 0.00 0.00 0.00 73 1015.5
20260508194053 69 30 2.6 7.8 0.00 0.00 0.00 73 1015.5
20260508193553 69 9 1.7 7.8 0.00 0.00 0.00 73 1015.6
20260508193056 68 292 0.9 6.1 0.00 0.00 0.00 76 1015.6
20260508193052 67 92 0.9 4.3 0.00 0.00 0.00 77 1015.7
20260508192056 67 144 0.9 8.7 0.00 0.00 0.00 76 1015.8
20260508192051 67 209 0.9 3.5 0.00 0.00 0.00 77 1015.7
20260508191551 67 78 0.9 8.7 0.00 0.00 0.00 77 1015.8
20260508190549 68 220 1.7 8.7 0.00 0.00 0.00 75 1015.8
20260508190047 68 97 2.6 8.7 0.00 0.00 0.00 76 1015.8
20260508185547 68 5 2.6 7.0 0.00 0.00 0.00 77 1015.8
20260508185055 67 5 1.7 6.1 0.00 0.00 0.00 77 1015.9
20260508185048 67 93 1.7 5.2 0.00 0.00 0.00 77 1015.8
20260508184047 67 65 1.7 6.1 0.00 0.00 0.00 78 1015.9
20260508183547 66 157 1.7 6.1 0.00 0.00 0.00 79 1015.9
20260508183047 66 91 1.7 6.1 0.00 0.00 0.00 80 1015.9
20260508182545 66 81 2.6 7.8 0.00 0.00 0.00 80 1015.9
20260508182044 65 25 2.6 7.8 0.00 0.00 0.00 81 1015.9
20260508181543 65 5 2.6 10.4 0.00 0.00 0.00 82 1015.8
20260508181043 65 108 1.7 10.4 0.00 0.00 0.00 82 1015.9
20260508180543 65 207 0.9 5.2 0.00 0.00 0.00 81 1015.9
20260508180043 65 132 0.9 6.1 0.00 0.00 0.00 81 1015.9
20260508175543 65 83 0.9 6.1 0.00 0.00 0.00 82 1016.0
20260508175047 63 107 0.9 7.8 0.00 0.00 0.00 85 1015.9
20260508175043 64 150 0.9 7.8 0.00 0.00 0.00 83 1016.0
20260508174043 63 130 0.0 2.6 0.00 0.00 0.00 85 1016.0
20260508173547 61 169 0.9 3.5 0.00 0.00 0.00 87 1016.0
20260508173543 62 181 0.9 3.5 0.00 0.00 0.00 86 1016.2
20260508172541 61 202 0.9 2.6 0.00 0.00 0.00 88 1016.0
20260508172041 60 202 0.9 2.6 0.00 0.00 0.00 88 1016.2
20260508171541 60 195 0.9 3.5 0.00 0.00 0.00 88 1016.0
20260508171041 60 204 0.9 3.5 0.00 0.00 0.00 87 1016.0
20260508170541 60 206 0.9 3.5 0.00 0.00 0.00 87 1016.0
20260508170041 60 178 0.9 3.5 0.00 0.00 0.00 88 1015.9
20260508165541 60 186 0.9 3.5 0.00 0.00 0.00 88 1016.0
20260508165041 60 195 0.9 2.6 0.00 0.00 0.00 88 1015.9
20260508164541 60 178 0.9 2.6 0.00 0.00 0.00 88 1015.9
20260508164042 60 214 0.9 2.6 0.00 0.00 0.00 88 1015.9
20260508163543 61 232 0.9 3.5 0.00 0.00 0.00 83 1015.9
20260508163539 60 213 1.7 3.5 0.00 0.00 0.00 86 1015.9
20260508162539 62 205 0.9 3.5 0.00 0.00 0.00 80 1015.9
20260508162043 66 130 0.0 1.7 0.00 0.00 0.00 77 1015.8
20260508162039 64 184 0.9 3.5 0.00 0.00 0.00 77 1015.9
20260508161642 66 189 0.0 3.5 0.00 0.00 0.00 76 1015.8
20260508161142 66 200 0.0 1.7 0.00 0.00 0.00 75 1015.8
20260508160037 66 130 0.0 2.6 0.00 0.00 0.00 78 1015.8
20260508155537 66 142 0.0 2.6 0.00 0.00 0.00 77 1015.8
20260508155041 65 89 0.0 2.6 0.00 0.00 0.00 78 1015.7
20260508155037 66 175 0.9 2.6 0.00 0.00 0.00 77 1015.8
20260508154037 65 40 0.0 1.7 0.00 0.00 0.00 79 1015.7
20260508153537 64 40 0.0 1.7 0.00 0.00 0.00 80 1015.8
20260508153037 64 5 0.0 1.7 0.00 0.00 0.00 79 1015.8
20260508152537 64 192 0.0 1.7 0.00 0.00 0.00 78 1015.7
20260508152037 63 0 0.0 0.9 0.00 0.00 0.00 78 1015.8
20260508151537 63 0 0.0 0.9 0.00 0.00 0.00 79 1015.9
20260508151041 62 0 0.0 2.6 0.00 0.00 0.00 80 1015.8
20260508151037 62 0 0.0 2.6 0.00 0.00 0.00 78 1015.8
20260508150036 62 0 1.7 3.5 0.00 0.00 0.00 76 1015.9
20260508145541 62 49 1.7 3.5 0.00 0.00 0.00 78 1015.7
20260508145536 62 0 2.6 3.5 0.00 0.00 0.00 78 1015.7
20260508144538 62 49 0.9 3.5 0.00 0.00 0.00 77 1015.8
20260508144037 62 49 0.9 2.6 0.00 0.00 0.00 79 1015.8